QPF
0.00 0.00 0.00 0.00 0.00 0.00 0.00 0.00 0.00 0.00 0.00 0.00 0.00 0.00 0.00 0.00 0.00 0.00 0.00 0.00 0.00 0.00 0.00 0.00 0.00 0.00 0.00 0.00 0.00 0.00 0.00 0.00 0.00 0.00 0.00 0.00 0.00 0.00 0.00 0.00 0.00 0.00 0.00 0.00 0.00
0.00 0.00 0.00 0.00 0.00 0.00 0.00 0.00 0.00 0.00 0.00 0.00 0.00 0.00 0.00 0.00 0.00 0.00 0.00 0.00 0.00 0.00 0.00 0.00 0.00 0.00 0.00 0.00 0.00 0.00 0.00 0.00 0.00 0.00 0.00 0.00 0.00 0.00 0.00 0.00 0.00 0.00 0.00 0.00 0.00
0.00 0.00 0.00 0.00 0.00 0.00 0.00 0.00 0.00 0.00 0.00 0.00 0.00 0.00 0.00 0.00 0.00 0.00 0.00 0.00 0.00 0.00 0.00 0.00 0.00 0.00 0.00 0.00 0.00 0.00 0.00 0.00 0.00 0.00 0.00 0.00 0.00 0.00 0.00 0.00 0.00 0.00 0.00 0.00 0.00
0.00 0.00 0.00 0.00 0.00 0.00 0.00 0.00 0.00 0.00 0.00 0.00 0.00 0.00 0.00 0.00 0.00 0.00 0.00 0.00 0.00 0.00 0.00 0.00 0.00 0.00 0.00 0.00 0.00 0.00 0.00 0.00 0.00 0.00 0.00 0.00 0.00 0.00 0.00 0.00 0.00 0.00 0.00 0.00 0.00
0.00 0.00 0.00 0.00 0.00 0.00 0.00 0.00 0.00 0.00 0.00 0.00 0.00 0.00 0.00 0.00 0.00 0.00 0.00 0.00 0.00 0.00 0.00 0.00 0.00 0.00 0.00 0.00 0.00 0.00 0.00 0.00 0.00 0.00 0.00 0.00 0.00 0.00 0.00 0.00 0.00 0.00 0.00 0.00 0.00
0.00 0.00 0.00 0.00 0.00 0.00 0.00 0.00 0.00 0.00 0.00 0.00 0.00 0.00 0.00 0.00 0.00 0.00 0.00 0.00 0.00 0.00 0.00 0.00 0.00 0.00 0.00 0.00 0.00 0.00 0.00 0.00 0.00 0.00 0.00 0.00 0.00 0.00 0.00 0.00 0.00 0.00 0.00 0.00 0.00
0.00 0.00 0.00 0.00 0.00 0.00 0.00 0.00 0.00 0.00 0.00 0.00 0.00 0.00 0.00 0.00 0.00 0.00 0.00 0.00 0.00 0.00 0.00 0.00 0.00 0.00 0.00 0.00 0.00 0.00 0.00 0.00 0.00 0.00 0.00 0.00 0.00 0.00 0.00 0.00 0.00 0.00 0.00 0.00 0.00
0.00 0.00 0.00 0.00 0.00 0.00 0.00 0.00 0.00 0.00 0.00 0.00 0.00 0.00 0.00 0.00 0.00 0.00 0.00 0.00 0.00 0.00 0.00 0.00 0.00 0.00 0.00 0.00 0.00 0.00 0.00 0.00 0.00 0.00 0.00 0.00 0.00 0.00 0.00 0.00 0.00 0.00 0.00 0.00 0.00
0.00 0.00 0.00 0.00 0.00 0.00 0.00 0.00 0.00 0.00 0.00 0.00 0.00 0.00 0.00 0.00 0.00 0.00 0.00 0.00 0.00 0.00 0.00 0.00 0.00 0.00 0.00 0.00 0.00 0.00 0.00 0.00 0.00 0.00 0.00 0.00 0.00 0.00 0.00 0.00 0.00 0.00 0.00 0.00 0.00
0.00 0.00 0.00 0.00 0.00 0.00 0.00 0.00 0.00 0.00 0.00 0.00 0.00 0.00 0.00 0.00 0.00 0.00 0.00 0.00 0.00 0.00 0.00 0.00 0.00 0.00 0.00 0.00 0.00 0.00 0.00 0.00 0.00 0.00 0.00 0.00 0.00 0.00 0.00 0.00 0.00 0.00 0.00 0.00 0.00
0.00 0.00 0.00 0.00 0.00 0.00 0.00 0.00 0.00 0.00 0.00 0.00 0.00 0.00 0.00 0.00 0.00 0.00 0.00 0.00 0.00 0.00 0.00 0.00 0.00 0.00 0.00 0.00 0.00 0.00 0.00 0.00 0.00 0.00 0.00 0.00 0.00 0.00 0.00 0.00 0.00 0.00 0.00 0.00 0.00
0.00 0.00 0.00 0.00 0.00 0.00 0.00 0.00 0.00 0.00 0.00 0.00 0.00 0.00 0.00 0.00 0.00 0.00 0.00 0.00 0.00 0.00 0.00 0.00 0.00 0.00 0.00 0.00 0.00 0.00 0.00 0.00 0.00 0.00 0.00 0.00 0.00 0.00 0.00 0.00 0.00 0.00 0.00 0.00 0.00
0.00 0.00 0.00 0.00 0.00 0.00 0.00 0.00 0.00 0.00 0.00 0.00 0.00 0.00 0.00 0.00 0.00 0.00 0.00 0.00 0.00 0.00 0.00 0.00 0.00 0.00 0.00 0.00 0.00 0.00 0.00 0.00 0.00 0.00 0.00 0.00 0.00 0.00 0.00 0.00 0.00 0.00 0.00 0.00 0.00
0.00 0.00 0.00 0.00 0.00 0.00 0.00 0.00 0.00 0.00 0.00 0.00 0.00 0.00 0.00 0.00 0.00 0.00 0.00 0.00 0.00 0.00 0.00 0.00 0.00 0.00 0.00 0.00 0.00 0.00 0.00 0.00 0.00 0.00 0.00 0.00 0.00 0.00 0.00 0.00 0.00 0.00 0.00 0.00 0.00
0.00 0.00 0.00 0.00 0.00 0.00 0.00 0.00 0.00 0.00 0.00 0.00 0.00 0.00 0.00 0.00 0.00 0.00 0.00 0.00 0.00 0.00 0.00 0.00 0.00 0.00 0.00 0.00 0.00 0.00 0.00 0.00 0.00 0.00 0.00 0.00 0.00 0.00 0.00 0.00 0.00 0.00 0.00 0.00 0.00
0.00 0.00 0.00 0.00 0.00 0.00 0.00 0.00 0.00 0.00 0.00 0.00 0.00 0.00 0.00 0.00 0.00 0.00 0.00 0.00 0.00 0.00 0.00 0.00 0.00 0.00 0.00 0.00 0.00 0.00 0.00 0.00 0.00 0.00 0.00 0.00 0.00 0.00 0.00 0.00 0.00 0.00 0.00 0.00 0.00
0.00 0.00 0.00 0.00 0.00 0.00 0.00 0.00 0.00 0.00 0.00 0.00 0.00 0.00 0.00 0.00 0.00 0.00 0.00 0.00 0.00 0.00 0.00 0.00 0.00 0.00 0.00 0.00 0.00 0.00 0.00 0.00 0.00 0.00 0.00 0.00 0.00 0.00 0.00 0.00 0.00 0.00 0.00 0.00 0.00
0.00 0.00 0.00 0.00 0.00 0.00 0.00 0.00 0.00 0.00 0.00 0.00 0.00 0.00 0.00 0.00 0.00 0.00 0.00 0.00 0.00 0.00 0.00 0.00 0.00 0.00 0.00 0.00 0.00 0.00 0.00 0.00 0.00 0.00 0.00 0.00 0.00 0.00 0.00 0.00 0.00 0.00 0.00 0.00 0.00
0.00 0.00 0.00 0.00 0.00 0.00 0.00 0.00 0.00 0.00 0.00 0.00 0.00 0.00 0.00 0.00 0.00 0.00 0.00 0.00 0.00 0.00 0.00 0.00 0.00 0.00 0.00 0.00 0.00 0.00 0.00 0.00 0.00 0.00 0.00 0.00 0.00 0.00 0.00 0.00 0.00 0.00 0.00 0.00 0.00
0.00 0.00 0.00 0.00 0.00 0.00 0.00 0.00 0.00 0.00 0.00 0.00 0.00 0.00 0.00 0.00 0.00 0.00 0.00 0.00 0.00 0.00 0.00 0.00 0.00 0.00 0.00 0.00 0.00 0.00 0.00 0.00 0.00 0.00 0.00 0.00 0.00 0.00 0.00 0.00 0.00 0.00 0.00 0.00 0.00
0.00 0.00 0.00 0.00 0.00 0.00 0.00 0.00 0.00 0.00 0.00 0.00 0.00 0.00 0.00 0.00 0.00 0.00 0.00 0.00 0.00 0.00 0.00 0.00 0.00 0.00 0.00 0.00 0.00 0.00 0.00 0.00 0.00 0.00 0.00 0.00 0.00 0.00 0.00 0.00 0.00 0.00 0.00 0.00 0.00
0.00 0.00 0.00 0.00 0.00 0.00 0.00 0.00 0.00 0.00 0.00 0.00 0.00 0.00 0.00 0.00 0.00 0.00 0.00 0.00 0.00 0.00 0.00 0.00 0.00 0.00 0.00 0.00 0.00 0.00 0.00 0.00 0.00 0.00 0.00 0.00 0.00 0.00 0.00 0.00 0.00 0.00 0.00 0.00 0.00
0.00 0.00 0.00 0.00 0.00 0.00 0.00 0.00 0.00 0.00 0.00 0.00 0.00 0.00 0.00 0.00 0.00 0.00 0.00 0.00 0.00 0.00 0.00 0.00 0.00 0.00 0.00 0.00 0.00 0.00 0.00 0.00 0.00 0.00 0.00 0.00 0.00 0.00 0.00 0.00 0.00 0.00 0.00 0.00 0.00
0.00 0.00 0.00 0.00 0.00 0.00 0.00 0.00 0.00 0.00 0.00 0.00 0.00 0.00 0.00 0.00 0.00 0.00 0.00 0.00 0.00 0.00 0.00 0.00 0.00 0.00 0.00 0.00 0.00 0.00 0.00 0.00 0.00 0.00 0.00 0.00 0.00 0.00 0.00 0.00 0.00 0.00 0.00 0.00 0.00
0.00 0.00 0.00 0.00 0.00 0.00 0.00 0.00 0.00 0.00 0.00 0.00 0.00 0.00 0.00 0.00 0.00 0.00 0.00 0.00 0.00 0.00 0.00 0.00 0.00 0.00 0.00 0.00 0.00 0.00 0.00 0.00 0.00 0.00 0.00 0.00 0.00 0.00 0.00 0.00 0.00 0.00 0.00 0.00 0.00
0.00 0.00 0.00 0.00 0.00 0.00 0.00 0.00 0.00 0.00 0.00 0.00 0.00 0.00 0.00 0.00 0.00 0.00 0.00 0.00 0.00 0.00 0.00 0.00 0.00 0.00 0.00 0.00 0.00 0.00 0.00 0.00 0.00 0.00 0.00 0.00 0.00 0.00 0.00 0.00 0.00 0.00 0.00 0.00 0.00
0.00 0.00 0.00 0.00 0.00 0.00 0.00 0.00 0.00 0.00 0.00 0.00 0.00 0.00 0.00 0.00 0.00 0.00 0.00 0.00 0.00 0.00 0.00 0.00 0.00 0.00 0.00 0.00 0.00 0.00 0.00 0.00 0.00 0.00 0.00 0.00 0.00 0.00 0.00 0.00 0.00 0.00 0.00 0.00 0.00
MSLP
1017.93 1017.61 1017.27 1017.03 1016.86 1016.73 1016.61 1016.43 1016.24 1016.05 1015.86 1015.62 1015.41 1015.25 1015.05 1014.89 1014.37 1013.88 1014.22 1015.51 1014.71 1014.04 1013.70 1013.00 1012.53 1012.37 1012.13 1012.34 1012.61 1012.53 1012.09 1013.15 1014.30 1014.37 1015.42 1016.06 1015.71 1017.35 1018.42 1019.16 1019.98 1020.75 1021.23 1022.05 1022.60
1017.95 1017.62 1017.37 1017.12 1016.93 1016.78 1016.62 1016.41 1016.20 1015.96 1015.79 1015.62 1015.43 1015.32 1015.20 1014.98 1014.32 1013.92 1015.15 1014.80 1014.39 1013.91 1013.27 1012.68 1012.30 1012.09 1012.11 1012.50 1012.87 1012.59 1013.46 1015.17 1016.09 1016.00 1016.76 1017.76 1017.97 1018.34 1019.18 1020.15 1021.05 1021.94 1022.55 1022.71 1022.64
1017.95 1017.67 1017.49 1017.22 1016.94 1016.74 1016.59 1016.41 1016.22 1016.04 1015.86 1015.77 1015.68 1015.51 1015.25 1014.92 1014.13 1014.58 1014.86 1014.60 1014.24 1013.69 1013.16 1012.87 1012.56 1012.29 1012.44 1013.01 1013.45 1013.90 1014.84 1016.20 1016.79 1016.89 1017.13 1018.32 1019.44 1020.22 1019.89 1022.00 1023.21 1023.43 1023.41 1023.39 1023.41
1017.94 1017.70 1017.47 1017.20 1016.97 1016.74 1016.59 1016.39 1016.14 1015.99 1015.92 1015.85 1015.65 1015.48 1015.16 1014.55 1015.05 1015.25 1015.23 1014.76 1014.19 1013.57 1013.11 1012.77 1012.39 1012.39 1012.75 1013.18 1014.01 1014.77 1015.84 1016.57 1018.05 1018.14 1018.38 1019.60 1021.40 1022.60 1023.34 1024.39 1024.69 1024.76 1025.00 1024.71 1024.35
1018.00 1017.73 1017.44 1017.21 1017.02 1016.83 1016.58 1016.33 1016.17 1016.01 1016.05 1015.86 1015.52 1015.20 1014.90 1014.68 1016.09 1016.02 1015.60 1014.76 1013.88 1013.63 1013.38 1012.94 1012.62 1012.84 1013.04 1013.99 1014.52 1015.53 1016.94 1018.11 1019.42 1019.91 1020.89 1021.97 1023.03 1024.11 1025.48 1026.09 1026.15 1025.76 1025.61 1025.37 1025.15
1018.08 1017.75 1017.48 1017.24 1017.03 1016.81 1016.57 1016.41 1016.30 1016.23 1016.07 1015.84 1015.49 1015.13 1014.61 1015.39 1016.90 1016.45 1015.71 1014.85 1014.58 1014.00 1014.04 1013.80 1013.60 1013.41 1013.95 1014.83 1015.13 1016.23 1017.50 1018.64 1019.92 1020.79 1021.80 1022.51 1023.97 1024.69 1026.85 1026.93 1026.87 1026.69 1026.46 1026.34 1026.05
1018.16 1017.81 1017.56 1017.30 1017.03 1016.73 1016.51 1016.43 1016.39 1016.22 1016.05 1015.94 1015.62 1015.24 1015.12 1017.05 1017.13 1016.67 1015.94 1015.62 1015.44 1014.89 1014.80 1015.08 1014.63 1014.19 1014.77 1015.84 1016.81 1017.05 1017.49 1018.30 1020.00 1020.63 1021.70 1021.98 1024.37 1026.41 1027.10 1027.14 1026.99 1026.83 1026.82 1026.64 1026.45
1018.30 1017.96 1017.67 1017.35 1017.05 1016.78 1016.59 1016.53 1016.42 1016.23 1016.08 1015.90 1015.68 1014.98 1016.12 1017.28 1017.14 1016.69 1016.24 1015.63 1015.73 1015.68 1015.64 1015.74 1015.46 1015.45 1016.27 1017.04 1016.85 1016.85 1017.28 1017.80 1020.17 1020.54 1021.55 1022.42 1025.26 1027.69 1027.93 1027.74 1027.49 1027.19 1027.01 1026.86 1026.66
1018.45 1018.13 1017.77 1017.44 1017.11 1016.91 1016.73 1016.59 1016.42 1016.28 1016.03 1015.72 1015.44 1015.14 1016.63 1017.13 1017.18 1017.42 1017.29 1016.55 1016.08 1015.93 1016.05 1016.15 1016.00 1016.95 1017.06 1016.78 1016.55 1016.76 1016.97 1018.10 1019.53 1021.34 1021.88 1022.35 1026.05 1028.55 1028.77 1028.32 1027.81 1027.46 1027.40 1027.23 1026.79
1018.53 1018.26 1017.91 1017.62 1017.27 1017.04 1016.78 1016.68 1016.33 1016.09 1016.08 1015.95 1016.18 1016.14 1017.60 1018.29 1018.34 1018.06 1017.65 1017.32 1016.39 1015.91 1015.87 1016.36 1017.03 1017.60 1018.44 1017.74 1018.12 1018.31 1018.10 1018.74 1019.94 1021.89 1023.35 1024.77 1027.05 1028.64 1028.96 1028.73 1028.50 1028.28 1027.97 1027.43 1026.88
1018.61 1018.35 1018.01 1017.79 1017.51 1017.16 1016.62 1016.41 1016.66 1016.73 1017.69 1018.67 1019.02 1018.80 1019.04 1019.07 1018.84 1018.51 1018.47 1017.54 1016.65 1016.65 1017.06 1018.14 1018.31 1019.90 1020.84 1021.07 1020.81 1020.22 1019.83 1019.78 1020.70 1022.99 1023.73 1025.64 1027.28 1028.65 1029.32 1029.35 1029.03 1028.51 1027.97 1027.52 1027.00
1018.70 1018.40 1018.08 1017.86 1017.64 1017.33 1016.69 1017.13 1018.38 1018.52 1019.11 1019.70 1019.69 1019.60 1019.94 1019.96 1019.13 1018.86 1018.68 1018.02 1018.09 1018.02 1018.43 1018.88 1020.41 1022.03 1022.26 1022.11 1021.46 1020.77 1020.72 1020.70 1021.73 1023.18 1023.96 1025.91 1027.60 1028.91 1029.21 1029.29 1029.22 1028.71 1028.20 1027.57 1026.85
1018.73 1018.42 1018.14 1017.91 1017.69 1017.49 1017.92 1018.82 1019.17 1018.72 1018.33 1019.75 1020.15 1020.21 1020.80 1020.63 1021.13 1021.09 1020.80 1020.21 1019.89 1019.73 1019.80 1020.27 1022.69 1022.99 1022.86 1022.61 1021.99 1021.93 1022.05 1022.22 1022.68 1023.08 1024.68 1025.63 1027.15 1028.26 1029.02 1029.05 1028.95 1028.62 1028.30 1027.63 1026.87
1018.73 1018.46 1018.20 1017.99 1018.15 1018.54 1018.82 1019.35 1019.32 1019.12 1018.42 1020.45 1020.30 1020.97 1021.13 1021.08 1021.72 1022.47 1022.31 1021.88 1021.24 1021.50 1021.85 1022.59 1023.60 1023.67 1023.33 1023.55 1023.87 1022.69 1022.96 1022.95 1022.84 1023.08 1023.38 1025.28 1025.33 1027.52 1028.76 1028.95 1028.97 1028.66 1028.03 1027.49 1026.98
1018.77 1018.64 1018.44 1018.17 1018.34 1018.79 1019.58 1019.44 1019.28 1018.94 1018.96 1021.48 1021.28 1021.70 1021.81 1021.83 1023.13 1022.70 1023.36 1021.91 1022.33 1022.65 1022.83 1024.34 1024.50 1024.38 1024.31 1025.36 1025.12 1024.34 1023.51 1023.41 1023.22 1023.04 1023.69 1024.87 1025.67 1027.03 1028.83 1029.07 1028.85 1028.65 1028.15 1027.52 1026.94
1018.83 1018.74 1018.60 1018.49 1018.89 1020.09 1019.88 1019.56 1019.11 1018.90 1020.55 1021.75 1022.08 1022.16 1022.00 1022.95 1023.64 1023.84 1023.66 1023.50 1024.21 1023.59 1023.93 1025.01 1025.80 1026.10 1026.41 1026.30 1026.26 1025.17 1023.04 1023.18 1023.40 1022.97 1022.72 1025.14 1026.30 1027.39 1029.07 1029.71 1029.12 1028.78 1028.27 1027.71 1026.86
1019.15 1019.02 1019.01 1019.50 1020.07 1020.29 1019.90 1019.15 1018.58 1019.43 1022.44 1022.64 1022.90 1023.13 1023.24 1023.94 1024.31 1024.88 1025.36 1025.49 1025.87 1025.01 1024.88 1025.55 1026.56 1027.20 1027.58 1026.50 1026.34 1025.89 1023.65 1022.63 1022.44 1022.26 1023.65 1025.24 1025.98 1028.47 1030.01 1029.78 1029.75 1029.40 1028.64 1027.88 1027.13
1019.46 1019.24 1020.41 1020.67 1020.66 1020.33 1019.52 1018.65 1019.55 1022.01 1022.85 1023.65 1023.78 1023.82 1023.95 1024.92 1025.38 1025.79 1026.10 1026.81 1027.83 1027.65 1026.93 1026.84 1027.16 1028.43 1029.02 1029.11 1028.61 1028.01 1027.28 1027.05 1026.63 1024.83 1025.00 1025.57 1026.50 1028.91 1030.03 1029.63 1029.47 1029.51 1028.90 1027.92 1026.83
1019.69 1019.67 1020.04 1020.57 1020.74 1020.20 1019.28 1019.64 1022.19 1023.27 1024.16 1024.17 1024.16 1024.08 1024.56 1025.33 1025.83 1026.34 1027.75 1028.83 1029.69 1029.47 1029.00 1028.54 1029.01 1030.05 1030.35 1030.29 1029.75 1029.16 1029.24 1030.25 1029.02 1028.13 1027.20 1026.60 1027.99 1029.82 1029.57 1029.47 1029.08 1028.85 1028.19 1027.32 1026.51
1019.61 1019.83 1020.75 1021.05 1020.70 1019.82 1019.67 1022.55 1024.24 1025.14 1025.32 1025.16 1024.71 1025.35 1025.05 1025.72 1026.00 1026.71 1028.55 1030.71 1030.84 1030.96 1030.66 1030.23 1029.77 1030.56 1031.00 1031.08 1031.36 1031.18 1031.75 1030.99 1030.62 1030.04 1028.46 1027.15 1027.71 1029.46 1029.86 1029.75 1029.30 1028.57 1028.10 1027.30 1026.27
1019.61 1019.65 1021.02 1021.09 1020.51 1020.06 1021.66 1024.11 1025.46 1026.28 1026.32 1025.99 1025.76 1025.91 1026.40 1026.65 1027.28 1028.17 1029.98 1031.53 1031.83 1031.60 1031.26 1030.97 1030.74 1031.22 1031.36 1032.57 1032.78 1032.27 1032.51 1032.71 1032.91 1032.70 1031.99 1030.53 1029.37 1031.18 1031.16 1030.90 1030.46 1029.47 1028.41 1027.27 1025.98
1019.84 1020.15 1021.32 1020.71 1021.05 1022.88 1023.91 1025.26 1026.39 1026.84 1026.94 1026.81 1026.81 1027.00 1027.27 1027.82 1028.35 1029.17 1030.55 1031.80 1032.60 1032.41 1031.77 1031.99 1031.42 1031.52 1033.16 1034.23 1034.35 1034.23 1034.69 1034.81 1034.22 1034.27 1034.32 1034.05 1031.73 1031.46 1032.04 1031.69 1031.19 1030.02 1028.85 1027.52 1026.19
1020.16 1021.11 1021.44 1021.29 1022.14 1024.15 1025.94 1026.68 1027.28 1027.43 1027.71 1027.50 1027.74 1027.94 1028.44 1028.82 1029.59 1030.27 1031.41 1032.86 1032.98 1032.91 1032.63 1032.38 1031.90 1032.05 1033.41 1034.59 1034.85 1035.21 1036.17 1036.36 1036.34 1036.63 1035.87 1035.00 1031.66 1031.97 1032.55 1031.86 1031.43 1030.25 1028.86 1027.54 1026.17
1020.80 1021.67 1022.13 1022.76 1024.05 1023.83 1025.32 1026.84 1027.68 1028.28 1028.44 1028.49 1028.63 1028.74 1029.01 1029.62 1030.30 1031.02 1031.95 1033.10 1033.43 1033.36 1033.51 1033.12 1032.70 1032.75 1033.65 1034.55 1035.48 1035.99 1036.86 1037.19 1037.10 1036.67 1036.68 1035.04 1033.10 1032.78 1032.54 1031.87 1031.30 1030.06 1029.03 1027.95 1026.27
1021.75 1023.34 1024.33 1024.34 1024.82 1024.79 1025.39 1026.79 1027.73 1028.47 1028.78 1029.00 1029.33 1029.40 1029.50 1030.19 1030.90 1031.59 1032.50 1033.28 1033.68 1033.90 1033.84 1033.57 1033.36 1033.96 1034.94 1035.53 1036.03 1036.53 1036.92 1037.36 1037.66 1037.35 1037.07 1035.79 1035.05 1034.12 1033.80 1032.88 1031.69 1030.52 1029.11 1027.40 1026.09
1022.25 1023.35 1024.83 1025.67 1025.83 1025.70 1026.39 1027.28 1027.82 1029.24 1029.59 1029.50 1029.52 1030.49 1030.48 1030.98 1031.84 1032.14 1032.71 1033.16 1033.48 1034.06 1034.24 1034.41 1034.38 1034.81 1035.50 1036.21 1036.46 1036.61 1037.21 1037.50 1037.52 1037.24 1036.96 1036.80 1035.37 1035.21 1034.39 1033.40 1031.71 1030.77 1029.07 1027.81 1026.70
1022.81 1023.25 1022.97 1026.77 1026.39 1026.21 1026.78 1027.37 1028.18 1029.00 1030.78 1030.85 1030.78 1031.10 1031.95 1032.91 1033.12 1033.56 1033.70 1034.05 1034.32 1034.58 1034.80 1034.92 1034.93 1035.14 1035.42 1036.36 1036.45 1036.62 1036.87 1037.27 1037.34 1036.83 1037.31 1036.54 1036.12 1035.25 1034.42 1033.20 1032.48 1030.75 1029.69 1028.48 1027.32
Thickness
5755 5757 5760 5762 5763 5763 5763 5763 5763 5764 5765 5767 5769 5770 5772 5773 5776 5781 5766 5764 5772 5778 5781 5785 5785 5783 5783 5771 5770 5768 5751 5731 5721 5725 5717 5719 5720 5708 5701 5686 5677 5670 5664 5655 5648
5756 5759 5761 5763 5764 5764 5763 5763 5764 5765 5766 5768 5769 5770 5770 5772 5775 5771 5768 5772 5775 5779 5781 5780 5776 5780 5770 5765 5763 5759 5738 5716 5717 5720 5707 5699 5698 5698 5686 5676 5667 5657 5651 5646 5642
5758 5761 5762 5764 5765 5764 5763 5763 5764 5765 5766 5767 5768 5769 5770 5771 5768 5762 5772 5774 5777 5781 5783 5781 5779 5774 5760 5761 5752 5745 5722 5719 5715 5720 5720 5703 5688 5684 5685 5653 5643 5637 5635 5632 5626
5760 5762 5763 5765 5765 5765 5763 5764 5764 5765 5766 5766 5768 5769 5771 5775 5741 5766 5770 5774 5778 5781 5782 5778 5775 5763 5753 5747 5749 5728 5730 5725 5707 5709 5707 5690 5675 5656 5648 5635 5631 5625 5616 5612 5608
5761 5763 5765 5766 5766 5765 5764 5765 5765 5766 5765 5766 5769 5772 5774 5761 5748 5763 5767 5773 5779 5780 5773 5772 5768 5761 5750 5745 5744 5726 5715 5708 5696 5691 5680 5669 5653 5641 5625 5619 5615 5611 5605 5598 5592
5762 5765 5766 5767 5768 5766 5766 5766 5766 5766 5767 5768 5771 5773 5770 5746 5756 5759 5766 5773 5773 5775 5768 5769 5763 5766 5749 5737 5735 5726 5711 5701 5690 5680 5669 5658 5644 5635 5609 5605 5598 5592 5585 5577 5570
5763 5766 5767 5768 5769 5768 5768 5768 5767 5767 5768 5769 5771 5771 5762 5742 5754 5758 5764 5766 5767 5768 5759 5760 5763 5759 5749 5728 5724 5717 5705 5700 5682 5679 5666 5666 5633 5611 5605 5598 5588 5581 5571 5561 5552
5762 5766 5769 5770 5771 5770 5769 5769 5768 5768 5769 5770 5771 5773 5746 5754 5755 5758 5762 5765 5765 5764 5759 5757 5757 5746 5733 5724 5719 5711 5708 5697 5670 5672 5663 5655 5619 5593 5589 5582 5573 5565 5555 5544 5533
5762 5766 5769 5771 5772 5771 5770 5769 5769 5769 5770 5772 5772 5768 5742 5757 5751 5753 5755 5754 5758 5759 5756 5753 5748 5727 5727 5719 5716 5711 5698 5689 5680 5661 5656 5653 5602 5577 5572 5567 5560 5551 5538 5526 5516
5762 5766 5769 5771 5773 5772 5771 5769 5770 5771 5770 5770 5766 5758 5747 5734 5743 5747 5752 5751 5752 5753 5750 5741 5730 5718 5705 5707 5687 5680 5686 5684 5670 5653 5635 5616 5586 5569 5561 5553 5541 5529 5518 5507 5495
5762 5766 5769 5771 5773 5774 5774 5773 5764 5757 5750 5731 5728 5731 5733 5738 5742 5741 5743 5746 5752 5743 5726 5717 5708 5681 5676 5671 5669 5670 5669 5669 5665 5634 5624 5599 5579 5560 5546 5531 5517 5507 5496 5486 5475
5762 5766 5769 5771 5773 5774 5775 5763 5753 5756 5730 5731 5730 5731 5730 5730 5730 5735 5741 5737 5731 5718 5718 5714 5683 5673 5670 5665 5665 5669 5663 5662 5646 5627 5619 5588 5565 5543 5530 5514 5501 5490 5480 5469 5458
5762 5766 5769 5771 5773 5773 5766 5758 5756 5758 5747 5731 5729 5726 5720 5724 5708 5711 5717 5718 5712 5706 5706 5698 5669 5668 5666 5662 5661 5655 5646 5638 5626 5622 5600 5581 5556 5535 5518 5505 5490 5477 5462 5447 5434
5761 5765 5768 5770 5768 5764 5760 5758 5757 5756 5746 5720 5724 5722 5719 5718 5706 5704 5705 5705 5702 5692 5686 5675 5668 5662 5665 5654 5642 5647 5642 5629 5619 5610 5612 5573 5583 5535 5506 5491 5476 5463 5449 5433 5422
5759 5763 5766 5768 5766 5763 5758 5758 5758 5757 5725 5717 5716 5723 5713 5707 5692 5701 5697 5707 5690 5683 5682 5660 5656 5655 5653 5631 5631 5632 5630 5616 5608 5604 5589 5570 5562 5525 5495 5475 5467 5452 5432 5424 5416
5757 5760 5763 5764 5763 5754 5755 5757 5758 5745 5709 5709 5710 5702 5708 5696 5689 5689 5689 5691 5678 5680 5672 5655 5648 5639 5630 5625 5616 5621 5635 5616 5602 5597 5598 5557 5543 5517 5474 5454 5447 5435 5424 5414 5410
5753 5756 5757 5755 5753 5751 5754 5759 5746 5728 5708 5702 5698 5695 5693 5683 5683 5674 5667 5662 5657 5671 5661 5654 5633 5628 5618 5625 5619 5611 5628 5626 5620 5608 5583 5555 5540 5493 5460 5454 5428 5410 5410 5409 5401
5748 5751 5744 5744 5745 5749 5755 5753 5727 5700 5701 5697 5692 5692 5689 5676 5672 5668 5666 5660 5643 5638 5647 5644 5650 5611 5602 5591 5586 5582 5584 5578 5555 5577 5563 5548 5533 5494 5458 5451 5432 5414 5407 5405 5403
5743 5744 5743 5741 5743 5748 5754 5731 5712 5703 5694 5695 5695 5696 5687 5675 5673 5668 5646 5638 5624 5622 5633 5628 5617 5594 5586 5583 5580 5575 5564 5544 5544 5540 5532 5535 5503 5469 5466 5447 5433 5420 5411 5406 5400
5740 5739 5734 5736 5740 5748 5740 5696 5692 5687 5687 5689 5695 5681 5687 5674 5677 5671 5650 5619 5616 5607 5604 5602 5611 5585 5578 5574 5565 5559 5542 5549 5537 5516 5521 5536 5510 5470 5447 5428 5422 5415 5405 5402 5402
5737 5736 5731 5733 5739 5738 5715 5693 5685 5681 5682 5689 5684 5680 5671 5668 5661 5654 5634 5614 5608 5604 5599 5593 5594 5583 5575 5554 5548 5550 5536 5527 5512 5502 5489 5485 5491 5443 5427 5412 5405 5405 5405 5405 5407
5730 5728 5726 5731 5726 5700 5697 5689 5681 5679 5679 5678 5676 5672 5667 5657 5655 5647 5634 5617 5600 5596 5596 5581 5584 5581 5550 5533 5532 5528 5509 5501 5506 5486 5460 5438 5447 5441 5417 5408 5402 5402 5404 5408 5410
5721 5718 5722 5725 5708 5687 5674 5673 5672 5675 5669 5673 5667 5663 5656 5650 5649 5636 5623 5602 5597 5592 5586 5578 5582 5585 5552 5535 5528 5513 5492 5481 5470 5448 5443 5424 5469 5443 5416 5409 5404 5403 5408 5408 5413
5716 5709 5712 5706 5692 5701 5686 5674 5669 5663 5662 5661 5660 5658 5654 5645 5637 5627 5619 5601 5591 5587 5571 5569 5570 5571 5570 5546 5517 5507 5481 5470 5466 5460 5434 5440 5442 5432 5418 5407 5403 5407 5405 5405 5416
5701 5688 5683 5691 5689 5691 5687 5675 5668 5665 5660 5658 5654 5652 5654 5637 5636 5627 5614 5601 5590 5576 5569 5568 5569 5552 5527 5513 5508 5498 5484 5468 5444 5449 5420 5430 5411 5412 5396 5394 5395 5402 5407 5419 5422
5695 5687 5676 5665 5671 5680 5669 5670 5667 5649 5654 5656 5657 5640 5643 5643 5628 5627 5615 5606 5598 5580 5567 5555 5557 5539 5522 5505 5501 5493 5479 5466 5457 5448 5433 5416 5416 5398 5392 5394 5403 5400 5411 5416 5416
5684 5685 5697 5645 5669 5680 5674 5670 5662 5656 5636 5637 5643 5641 5632 5614 5610 5599 5595 5586 5580 5577 5564 5554 5548 5540 5546 5500 5497 5503 5485 5470 5458 5452 5428 5421 5411 5400 5391 5392 5388 5400 5404 5410 5412